This demonstration page uses our WeatherBlox Daily Observations layout. Learn more.

Left ArrowRight Arrow

38.20091, -84.87328

Hourly Observations for August 13, 2019

Temp ( °F °C ) Dew Point ( °F °C ) Humidity (%) Winds ( mph kmh ) Pressure ( in mb ) Visibility ( mi km ) Precip ( " mm )
12:53 am 00:53 Mostly Clear 79 26.1 68 20 69 69 S 5 7 29.83 1010 10 16 0.00 0.00
1:53 am 01:53 Partly Cloudy 78 25.6 69 20.6 74 74 SSW 7 11 29.82 1010 10 16 0.00 0.00
2:53 am 02:53 Partly Cloudy 80 26.7 69 20.6 69 69 SSW 8 13 29.80 1009 10 16 0.00 0.00
3:53 am 03:53 Clear 79 26.1 70 21.1 74 74 SW 12 19 29.77 1008 8 13 0.00 0.00
4:53 am 04:53 Hazy 81 27.2 73 22.8 77 77 WSW 15 24 29.76 1008 4 6 0.00 0.00
5:53 am 05:53 Clear 77 25 70 21.1 79 79 SSW 13 20 29.73 1007 10 16 0.00 0.00
6:53 am 06:53 Sunny 76 24.4 69 20.6 79 79 NNW 7 11 29.81 1010 10 16 0.00 0.00
7:53 am 07:53 Mostly Sunny 77 25 69 20.6 77 77 Calm 29.82 1010 10 16 0.00 0.00
8:19 am 08:19 Mostly Cloudy with Nearby Thunderstorms 78 25.6 69 20.6 74 74 NNW 3 6 29.85 1011 10 16 0.00 0.00
8:29 am 08:29 Cloudy with Thunderstorms 77 25 69 20.6 77 77 NNW 7 11 29.86 1011 10 16 0.00 0.00
8:53 am 08:53 Cloudy with Nearby Thunderstorms 75 23.9 70 21.1 84 84 Calm 29.84 1010 10 16 0.00 0.00
9:38 am 09:38 Mostly Cloudy with Light Rain 73 22.8 70 21.1 90 90 W 10 17 29.88 1012 4 6 0.04 1.02
9:47 am 09:47 Mostly Cloudy with Nearby Thunderstorms 73 23 70 21 89 89 WSW 7 11 29.88 1012 6 10 0.05 1.27
9:53 am 09:53 Mostly Cloudy with Nearby Thunderstorms 73 22.8 70 21.1 90 90 WSW 8 13 29.89 1012 5 8 0.06 1.52
10:01 am 10:01 Mostly Cloudy with Heavy Rain 73 22.8 70 21.1 90 90 SW 8 13 29.89 1012 3 4 0.03 0.76
10:16 am 10:16 Mostly Cloudy with Heavy Rain 73 22.8 70 21.1 90 90 SSW 9 15 29.88 1012 3 5 0.10 2.54
10:27 am 10:27 Cloudy with Rain 73 22.8 71 21.7 94 94 SSW 8 13 29.88 1012 3 4 0.14 3.56
10:37 am 10:37 Mostly Cloudy with Rain 73 22.8 70 21.1 90 90 SW 9 15 29.88 1012 4 6 0.17 4.32
10:53 am 10:53 Partly Cloudy with Light Rain 73 22.8 70 21.1 90 90 SW 9 15 29.87 1012 7 11 0.18 4.57
11:53 am 11:53 Sunny 77 25 71 21.7 82 82 SW 12 19 29.83 1010 10 16 0.01 0.25
12:53 pm 12:53 Sunny 80 26.7 71 21.7 74 74 VRB 6 9 29.80 1009 10 16 0.00 0.00
1:53 pm 13:53 Sunny 84 28.9 71 21.7 65 65 W 7 11 29.78 1009 10 16 0.00 0.00
2:53 pm 14:53 Mostly Sunny 86 30 72 22.2 63 63 W 10 17 29.79 1009 10 16 0.00 0.00
3:53 pm 15:53 Cloudy 86 30 73 22.8 65 65 SW 9 15 29.80 1009 10 16 0.00 0.00
4:53 pm 16:53 Partly Cloudy 87 30.6 73 22.8 63 63 W 8 13 29.80 1009 10 16 0.00 0.00
5:53 pm 17:53 Mostly Sunny 85 29.4 73 22.8 68 68 WSW 7 11 29.78 1009 10 16 0.00 0.00
6:53 pm 18:53 Mostly Sunny 85 29.4 73 22.8 68 68 SW 13 20 29.81 1009 10 16 0.00 0.00
7:53 pm 19:53 Sunny 84 28.9 73 22.8 70 70 WSW 7 11 29.80 1009 10 16 0.00 0.00
8:53 pm 20:53 Mostly Clear 81 27.2 73 22.8 77 77 WSW 3 6 29.82 1010 10 16 0.00 0.00
9:53 pm 21:53 Mostly Cloudy with Haze 79 26.1 74 23.3 85 85 WSW 3 6 29.82 1010 6 10 0.00 0.00
10:53 pm 22:53 Hazy 78 25.6 73 22.8 85 85 WSW 5 7 29.85 1011 5 8 0.00 0.00
11:53 pm 23:53 Clear 77 25 73 22.8 88 88 Calm 29.86 1011 7 11 0.00 0.00

Powered by AerisWeather